CZ-4 DEB, 26444

Orbit data source: Space-Track

CZ-4 DEB, 26444 is space debris in SSO originally from a launch on Thu, 14 Oct 1999 UTC launched from the Taiyaun Space Center, China (TSC). Debris objects in space refer to the collection of defunct objects orbiting the Earth. Examples of debris include non-operational satellites, rocket bodies, and fragments generated from explosions, collisions, or faulty payload assembly.

Loading next visibility...
Identifier
26444, 1999-057KR
Orbit
SSO
Country
Flag of CNCN / PRC
Related business
Manufacturer
Unknown
Mission
Spacecraft
Bus & Motor
Unknown
Mass
Unknown
Launch date (UTC)
1999-10-14 (26 years ago)
Launch vehicle
Unknown
Launch site
Taiyaun Space Center, China (TSC)
Object type
Payload
Rocket body
Debris
Shape & HBR
Unknown shape, 0.1 m
Radar Cross Section
Small (<0.1 m²)

Expand to show TLE details & history
Last TLE update: 18 hours ago

TLE from 18 hours ago
0 CZ-4 DEB
1 26444U 99057KR  25351.15502436  .00002017  00000-0  35346-3 0  9996
2 26444  98.5404  63.1045 0067553 269.2217 120.3057 14.67549586362358
Epoch: 2025-12-17T03:43Z
TLE epoch observation values (Epoch: 2025-12-17T03:43:14.104Z)
Latitude
29.87591°
Longitude
-83.65554°
Altitude
696.951 km
Speed
7.497 km/s
True Right ascension
03h 52m 43s
True Declination
29° 43' 35"
Sunlit
Object was in full shadow at epoch
Visualization orbit readout
Latitude
Unknown
Longitude
Unknown
Altitude
Unknown
Speed
Unknown
Apparent Right ascension
Unknown
Apparent Declination
Unknown
Sunlit
N/A
Visualization observer readout
Local Sidereal Time
20:17:07
Azimuth
Unknown
Elevation
Unknown
Doppler factor
Unknown
Orbital elements
Apogee altitude
713.574 km
Perigee altitude
618.403 km
Semi-major axis
7,044.126 km
Eccentricity
0.00676
Inclination
98.5404°
RAAN
63.1045°
Arg. of periapsis
269.2217°
True anomaly
120.97116°
Mean anomaly
120.3057°
Eccentric anomaly
120.63872°
Mean motion
3.67115 °/min
Orbital period
98.06 mins
BSTAR
0.00035346
Loading maneuver chart data...
Computing Atmospheric mass density...

Documentation

Showing up to 5 results
|